Date,TemperatureHighF,TemperatureAvgF,TemperatureLowF,DewpointHighF,DewpointAvgF,DewpointLowF,HumidityHigh,HumidityAvg,HumidityLow,PressureMaxIn,PressureMinIn,WindSpeedMaxMPH,WindSpeedAvgMPH,GustSpeedMaxMPH,PrecipitationSumIn
2014-1-1,3.7,0.7,-3.1,-2.2,-4.3,-7.0,85,79,72,30.47,30.35,11,3,11,0.00
2014-1-2,3.4,-2.2,-11.9,-2.3,-7.3,-15.8,85,78,71,30.56,30.42,11,2,11,0.00
2014-1-3,26.5,10.2,-11.1,22.6,5.8,-15.8,85,82,76,30.49,29.62,35,11,35,0.00
2014-1-4,33.5,16.5,2.3,30.4,11.9,-3.0,89,82,76,30.23,29.59,23,7,23,0.00
2014-1-5,2.2,-5.0,-15.8,-3.1,-11.8,-23.4,79,72,60,30.45,30.23,23,7,23,0.00
2014-1-6,-8.6,-13.9,-19.7,-15.3,-20.4,-26.4,77,72,68,30.46,30.35,22,6,22,0.00
2014-1-7,12.8,0.7,-10.1,1.0,-6.2,-15.3,80,72,56,30.35,30.22,12,2,12,0.00
2014-1-8,8.3,1.6,-3.4,0.6,-4.0,-7.4,84,77,69,30.54,30.34,9,1,11,0.00
2014-1-9,19.5,7.9,-3.8,17.7,4.6,-7.8,93,86,77,30.51,30.02,20,8,20,0.00
2014-1-10,31.5,26.8,19.4,30.9,25.9,17.7,98,96,93,30.03,29.52,16,3,16,0.00
2014-1-11,30.2,26.0,19.4,29.7,24.7,17.7,98,95,91,29.79,29.52,0,0,0,0.00
2014-1-12,38.9,34.7,23.5,34.0,30.8,22.4,98,86,78,29.73,29.42,30,5,30,0.01
2014-1-13,36.4,33.1,28.1,33.2,27.9,22.4,91,81,71,29.73,29.54,20,5,20,0.00
2014-1-14,35.0,22.9,9.4,33.2,19.1,5.0,95,85,80,30.14,29.49,24,7,24,0.06
2014-1-15,26.9,14.7,5.3,21.3,9.3,1.1,88,79,66,30.20,29.61,28,7,28,0.00
2014-1-16,34.9,20.4,3.8,31.2,15.1,-1.4,92,80,66,29.92,29.50,29,8,29,0.00
2014-1-17,15.3,7.6,-0.1,8.7,2.7,-4.4,86,80,74,30.10,29.90,19,4,19,0.00
2014-1-18,20.6,16.5,10.9,17.8,12.9,6.5,92,85,77,30.04,29.54,22,6,24,0.00
2014-1-19,45.9,30.8,15.5,37.3,25.6,12.8,90,81,67,29.92,29.54,23,8,23,0.00
2014-1-20,33.1,22.4,-0.1,28.2,18.9,-7.8,93,86,69,30.40,29.75,27,5,27,0.00
2014-1-21,8.5,-0.3,-10.8,4.1,-5.7,-15.3,85,77,68,30.49,30.11,17,5,17,0.00
2014-1-22,13.2,4.9,-8.1,9.7,0.6,-12.9,86,82,75,30.56,30.03,24,6,24,0.00
2014-1-23,2.7,-5.3,-12.2,-3.7,-10.4,-17.0,84,78,73,30.84,30.47,17,4,18,0.00
2014-1-24,36.1,23.8,2.7,34.3,17.7,-4.0,98,78,64,30.47,29.58,31,12,31,0.03
2014-1-25,32.0,14.6,7.4,28.9,6.2,-4.0,90,69,56,29.96,29.55,24,7,26,0.00
2014-1-26,28.5,16.0,-4.2,26.1,12.3,-9.3,92,85,76,30.17,29.41,27,8,27,0.00
2014-1-27,-3.3,-7.1,-10.1,-8.5,-12.9,-16.0,82,76,67,30.56,30.17,23,4,23,0.00
2014-1-28,6.9,-2.5,-11.3,-2.0,-8.8,-15.7,81,74,63,30.53,30.27,15,4,17,0.00
2014-1-29,34.4,16.9,-1.6,19.4,6.8,-7.2,78,65,48,30.27,29.65,23,9,28,0.00
2014-1-30,31.4,19.9,1.2,29.4,14.1,-3.0,96,79,58,30.09,29.39,31,9,31,0.00
2014-1-31,15.2,4.4,-0.6,6.9,-0.9,-5.3,83,78,63,30.25,30.09,12,3,14,0.00
2014-2-1,22.0,11.5,2.8,17.3,7.2,-2.5,88,83,77,30.29,30.02,13,3,13,0.00
2014-2-2,13.9,4.0,-5.6,6.6,-0.8,-9.2,86,80,71,30.41,30.29,13,3,13,0.00
2014-2-3,21.0,10.8,-0.5,13.9,6.2,-4.2,87,81,73,30.39,30.29,14,3,14,0.00
2014-2-4,15.6,11.1,4.7,9.9,5.0,-1.8,84,76,67,30.46,30.37,22,4,22,0.00
2014-2-5,5.9,1.7,-3.7,0.0,-3.9,-8.7,83,77,68,30.62,30.42,23,6,23,0.00
2014-2-6,6.3,-1.5,-8.1,-0.8,-7.1,-12.6,82,77,69,30.60,30.42,20,5,20,0.00
2014-2-7,14.8,3.2,-6.9,7.6,-2.4,-11.4,81,77,69,30.42,30.26,17,6,17,0.00
2014-2-8,5.2,2.6,0.1,1.1,-1.7,-4.6,83,82,79,30.27,30.22,7,2,7,0.00
2014-2-10,2.0,-3.7,-11.5,-4.9,-9.3,-15.5,86,77,69,30.59,30.53,10,2,10,0.00
2014-2-11,14.0,1.3,-11.3,8.4,-3.7,-15.3,86,79,72,30.59,30.21,24,8,24,0.00
2014-2-12,14.1,13.9,13.7,8.6,8.2,7.9,79,78,76,30.22,30.16,24,13,24,0.00
2014-2-13,19.4,12.1,7.1,13.7,7.5,2.8,84,81,76,29.79,29.70,17,5,19,0.00
2014-2-14,14.3,8.6,4.6,8.1,4.4,1.3,87,83,75,30.13,29.74,16,3,16,0.00
2014-2-15,23.5,11.8,0.1,21.3,8.7,-3.4,92,87,82,30.12,29.84,24,7,24,0.00
2014-2-16,20.4,17.1,12.6,17.3,13.4,9.5,89,85,76,30.27,30.04,28,8,28,0.00
2014-2-17,36.4,27.0,19.2,30.9,23.4,16.0,93,86,78,30.04,29.73,34,11,34,0.00
2014-2-18,43.2,34.7,25.4,33.8,28.5,20.3,93,78,63,29.85,29.57,13,5,16,0.01
2014-2-19,45.9,34.6,26.1,38.3,31.2,24.2,95,88,73,29.89,29.68,19,6,19,0.01
2014-2-20,35.9,33.2,21.8,34.3,32.0,20.3,99,95,86,29.69,29.24,17,3,21,0.02
2014-2-21,22.6,18.1,12.5,14.4,12.1,9.2,89,77,68,29.89,29.58,5,0,5,0.00
2014-2-22,19.2,14.1,9.4,11.5,8.1,4.9,87,77,69,30.22,29.89,12,2,12,0.00
2014-2-23,17.1,11.1,4.5,9.8,5.8,0.6,85,79,70,30.37,30.21,15,3,15,0.00
2014-2-24,14.8,9.2,3.9,6.9,3.8,-0.6,88,78,67,30.44,30.34,8,2,11,0.00
2014-2-25,9.2,2.2,-3.6,4.2,-3.1,-9.3,87,78,67,30.46,30.35,16,4,16,0.00
2014-2-26,18.4,3.7,-11.4,13.2,-1.4,-15.4,84,79,69,30.45,29.83,29,9,29,0.00
2014-2-27,5.2,-4.0,-9.5,-3.0,-13.5,-18.1,74,63,44,30.28,29.99,13,4,19,0.00
2014-2-28,20.4,9.5,-9.9,15.6,4.2,-16.6,90,79,70,30.19,29.97,25,8,25,0.00
2014-3-1,11.2,0.5,-6.1,7.0,-4.3,-11.9,83,80,76,30.60,30.19,22,6,22,0.00
2014-3-2,-0.3,-6.2,-12.6,-9.5,-13.7,-19.5,78,70,59,30.69,30.58,16,4,16,0.00
2014-3-3,9.2,1.0,-9.3,6.4,-4.8,-13.7,88,76,64,30.64,30.30,17,5,17,0.00
2014-3-4,18.7,12.4,3.6,15.0,7.7,0.6,90,81,68,30.30,30.17,11,3,15,0.00
2014-3-5,21.0,18.0,13.0,15.4,14.0,10.5,91,84,78,30.44,30.28,18,7,18,0.00
2014-3-6,28.0,20.0,13.4,25.2,17.0,10.3,92,88,82,30.39,29.90,21,12,25,0.00
2014-3-7,36.4,29.4,24.0,32.3,26.1,20.4,91,87,83,30.16,29.81,20,6,20,0.08
2014-3-8,28.0,22.1,15.0,22.0,17.7,12.5,92,83,72,30.34,30.15,12,3,12,0.00
2014-3-9,44.4,33.9,14.3,36.9,28.2,11.9,91,80,73,30.27,29.74,26,9,26,0.01
2014-3-10,51.5,44.3,38.3,41.9,37.3,33.3,89,77,63,29.74,29.66,11,3,12,0.00
2014-3-11,42.0,37.0,32.6,38.1,33.5,25.5,98,88,74,29.96,29.62,22,4,22,0.04
2014-3-12,32.4,26.7,22.0,26.0,19.8,14.5,85,75,64,30.13,29.96,13,5,20,0.00
2014-3-13,54.6,39.1,26.8,45.8,33.6,22.2,89,81,69,30.09,29.59,19,8,19,0.00
2014-3-14,44.4,39.9,32.7,36.5,33.7,28.2,86,79,69,29.96,29.54,19,5,20,0.00
2014-3-15,33.1,29.5,26.1,28.4,24.3,17.9,92,81,70,30.33,29.94,13,3,13,0.00
2014-3-16,27.4,22.5,15.4,20.7,14.3,7.8,80,70,58,30.45,30.09,18,4,18,0.00
2014-3-17,41.9,30.3,21.6,33.3,24.3,14.2,84,78,69,30.09,29.57,29,12,29,0.00
2014-3-18,44.4,36.0,31.9,37.9,31.7,27.4,96,84,75,29.70,29.56,21,8,21,0.02
2014-3-19,37.3,32.1,27.6,32.0,28.8,25.9,97,88,73,30.01,29.69,19,5,19,0.02
2014-3-20,46.3,36.4,27.2,37.4,32.1,26.2,99,85,64,30.05,29.91,12,3,14,0.01
2014-3-21,50.4,36.4,25.7,40.9,31.3,20.0,89,82,65,30.14,29.77,24,8,24,0.00
2014-3-22,25.5,20.3,16.5,20.1,13.4,9.2,83,74,64,30.42,30.13,21,8,21,0.00
2014-3-23,27.2,25.0,22.9,17.3,14.5,12.6,72,64,55,30.43,30.39,9,2,9,0.00
2014-3-24,32.7,26.2,22.0,28.2,21.9,16.0,94,84,72,30.40,30.16,18,4,18,0.00
2014-3-25,24.9,19.6,14.1,17.5,11.4,3.7,84,70,60,30.35,30.16,22,4,22,0.00
2014-3-26,46.1,30.3,15.8,37.6,21.2,12.2,87,70,48,30.23,29.65,38,14,38,0.00
2014-3-27,44.1,38.3,32.9,39.6,37.4,32.3,99,97,80,29.66,29.33,33,9,34,0.31
2014-3-28,37.9,33.4,30.6,32.3,28.5,25.4,98,83,71,30.22,29.65,20,4,20,0.00
2014-3-29,45.7,35.9,26.5,35.4,26.9,18.4,89,72,40,30.30,30.12,12,3,12,0.00
2014-3-30,65.0,47.3,34.3,48.5,38.9,31.1,88,74,49,30.12,29.75,28,11,28,0.00
2014-3-31,65.1,46.5,24.8,54.6,40.2,19.2,98,79,62,29.75,29.32,39,17,39,0.24
2014-4-1,40.4,29.3,20.5,31.7,23.3,14.9,89,78,69,30.12,29.59,34,8,34,0.00
2014-4-2,46.1,36.7,27.3,34.9,30.0,25.4,94,78,57,30.17,29.93,17,4,17,0.01
2014-4-3,39.5,35.5,32.2,37.0,33.7,29.1,98,93,75,29.95,29.60,24,6,24,0.19
2014-4-4,39.2,32.5,27.0,32.0,29.3,25.5,98,88,70,30.11,29.58,25,5,25,0.09
2014-4-5,50.2,38.2,26.9,39.5,32.1,25.2,96,80,59,30.18,30.01,18,5,18,0.00
2014-4-6,58.6,46.7,34.7,48.9,39.8,30.8,94,77,62,30.01,29.84,22,7,22,0.03
2014-4-7,58.7,48.5,42.9,48.6,42.8,35.1,98,82,54,29.87,29.70,19,2,20,0.03
2014-4-8,50.6,42.8,37.2,38.2,35.2,31.8,90,75,55,30.02,29.79,19,4,19,0.00
2014-4-9,71.2,51.0,34.5,45.8,36.9,29.9,86,62,30,30.00,29.56,31,8,31,0.00
2014-4-10,60.2,52.8,44.9,43.4,35.4,27.9,80,54,31,29.95,29.54,23,4,23,0.00
2014-4-11,69.0,55.2,42.2,42.9,36.7,30.5,70,52,29,29.95,29.85,23,4,23,0.00
2014-4-12,75.5,57.1,47.7,59.9,48.7,38.8,94,74,55,29.86,29.52,27,7,27,0.04
2014-4-13,47.7,41.3,32.6,46.0,40.5,32.1,99,97,93,29.77,29.59,29,8,29,0.82
2014-4-14,36.9,31.4,28.2,32.0,21.8,14.7,98,69,44,30.14,29.77,30,8,30,0.00
2014-4-15,38.7,29.8,20.4,26.2,16.9,10.1,74,59,38,30.21,30.03,19,4,19,0.00
2014-4-16,56.9,44.0,31.7,42.1,33.0,23.1,93,66,45,30.04,29.72,36,14,36,0.00
2014-4-17,42.2,34.3,30.6,34.9,30.2,27.9,94,85,69,30.33,29.86,19,4,20,0.00
2014-4-18,57.9,42.2,28.8,37.9,32.7,27.0,95,72,40,30.37,30.16,25,6,25,0.00
2014-4-19,74.1,58.1,39.6,49.7,42.9,34.0,83,59,39,30.18,29.98,32,12,32,0.00
2014-4-20,69.6,60.6,52.8,60.3,54.4,48.1,99,81,60,30.02,29.83,21,6,21,1.75
2014-4-21,66.7,58.3,47.5,60.1,51.1,35.7,100,80,42,30.01,29.82,21,4,21,0.18
2014-4-22,59.9,49.6,39.4,40.3,36.5,33.7,82,62,38,30.10,30.00,17,3,17,0.00
2014-4-23,49.6,45.2,42.5,41.4,36.7,33.2,96,73,58,30.06,29.81,31,15,31,0.04
2014-4-24,51.5,45.3,41.0,47.6,43.0,39.7,98,92,80,29.84,29.63,32,7,32,0.54
2014-4-25,68.4,54.2,39.1,46.0,40.1,35.4,98,64,32,29.83,29.74,15,3,15,0.00
2014-4-26,62.3,51.7,41.7,43.7,39.9,35.5,88,65,44,29.90,29.72,31,8,31,0.00
2014-4-27,51.9,46.3,38.4,49.0,42.9,33.6,98,88,67,29.79,29.43,48,17,48,0.87
2014-4-28,48.0,45.5,43.7,47.5,44.8,42.7,99,97,90,29.58,29.39,30,10,35,0.80
2014-4-29,43.9,39.1,34.2,42.8,38.2,33.4,98,97,94,29.71,29.45,16,6,17,0.39
2014-4-30,42.2,37.7,34.1,41.8,37.1,33.2,99,98,94,29.76,29.70,17,4,17,0.27
2014-5-1,46.1,42.4,39.0,42.2,39.7,37.2,97,90,83,29.88,29.71,12,4,17,0.01
2014-5-2,61.5,49.9,38.1,48.2,41.5,36.3,93,74,51,29.87,29.61,29,6,29,0.00
2014-5-3,62.2,52.2,40.9,43.3,38.9,35.8,83,62,41,29.93,29.73,18,4,18,0.00
2014-5-4,54.4,47.1,38.3,40.5,37.3,33.7,89,69,52,30.08,29.89,18,5,18,0.16
2014-5-5,65.3,54.1,45.0,41.8,38.5,33.5,78,57,37,29.94,29.85,23,5,23,0.00
2014-5-6,68.0,56.1,43.0,45.3,39.8,32.3,72,55,40,29.89,29.66,36,15,36,0.00
2014-5-7,84.5,66.2,50.8,66.5,54.0,42.3,78,65,48,29.68,29.50,36,11,36,0.00
2014-5-8,77.8,70.6,56.3,65.7,60.1,51.1,84,70,51,29.65,29.49,35,11,36,0.00
2014-5-9,63.2,53.9,48.9,51.3,43.9,36.2,88,71,40,29.80,29.55,26,8,26,0.00
2014-5-10,63.9,54.5,44.1,55.0,47.2,39.8,87,77,52,29.86,29.71,27,5,29,0.33
2014-5-11,69.5,59.7,50.1,63.4,56.4,46.9,98,89,78,29.88,29.64,30,5,30,0.79
2014-5-12,71.7,59.4,46.5,66.2,57.8,44.7,99,95,80,29.84,29.60,21,7,27,0.70
2014-5-13,54.8,48.4,44.5,45.1,41.0,37.3,94,77,54,30.24,29.84,18,4,18,0.00
2014-5-14,61.0,51.4,38.5,41.8,38.1,35.0,90,63,40,30.25,30.06,19,2,20,0.00
2014-5-15,48.2,43.9,39.6,39.1,35.4,32.5,90,72,56,30.11,30.02,23,6,23,0.03
2014-5-16,51.6,44.9,38.2,36.6,33.3,28.9,86,65,44,30.09,30.05,10,2,11,0.00
2014-5-17,64.2,52.7,38.6,38.4,33.4,27.3,76,50,30,30.11,30.01,19,4,19,0.00
2014-5-18,69.5,59.1,45.8,45.7,37.6,32.0,64,47,27,30.11,29.96,27,8,27,0.00
2014-5-19,69.1,60.0,51.8,60.9,52.9,44.8,89,78,64,30.00,29.69,34,12,34,0.05
2014-5-20,84.2,71.3,58.0,63.3,57.0,49.3,95,65,32,29.81,29.69,12,2,12,0.00
2014-5-21,71.3,64.7,56.8,56.5,50.9,47.3,83,62,45,30.06,29.79,19,4,19,0.00
2014-5-22,75.3,62.4,51.2,49.4,44.7,37.6,82,56,26,30.17,30.05,11,1,11,0.00
2014-5-23,79.1,65.3,50.4,47.6,43.1,39.2,75,47,26,30.19,30.07,16,3,16,0.00
2014-5-24,78.8,66.8,54.6,51.5,45.8,41.8,72,49,28,30.13,29.98,21,7,21,0.00
2014-5-25,75.5,68.2,57.1,64.7,58.2,47.0,86,71,60,30.02,29.86,23,8,24,0.00
2014-5-26,82.7,71.3,63.3,65.3,62.8,59.8,98,77,48,29.92,29.80,21,4,21,0.09
2014-5-27,78.1,69.0,63.0,68.1,64.6,61.3,98,87,61,29.88,29.81,15,2,15,0.11
2014-5-28,81.7,70.8,64.5,67.1,57.7,35.3,97,69,25,30.00,29.86,11,1,13,0.00
2014-5-29,84.4,72.7,57.3,62.7,54.6,44.6,76,55,32,30.05,29.93,15,4,19,0.00
2014-5-30,87.6,76.4,64.9,65.2,62.1,59.0,84,63,42,30.05,29.94,21,8,21,0.00
2014-5-31,83.7,73.4,66.4,68.8,65.5,61.0,91,77,52,30.01,29.84,33,8,33,0.01
2014-6-1,85.6,71.0,63.6,69.8,65.9,59.8,100,85,52,29.86,29.65,16,6,23,1.09
2014-6-2,78.0,69.7,63.3,66.0,61.6,57.0,100,78,51,29.85,29.66,24,6,24,0.01
2014-6-3,75.5,66.3,58.6,62.4,57.4,53.3,92,74,49,29.96,29.71,11,1,11,0.06
2014-6-4,75.3,68.2,62.9,65.4,61.2,57.5,93,79,56,29.86,29.64,20,3,20,0.01
2014-6-5,75.5,66.5,57.1,59.8,57.0,53.5,97,74,50,29.91,29.80,25,6,25,0.00
2014-6-6,86.8,73.3,60.3,67.2,60.6,56.2,98,68,38,29.90,29.81,10,2,10,0.00
2014-6-7,73.8,67.5,57.9,65.2,59.6,53.7,89,77,60,29.96,29.83,20,2,20,0.00
2014-6-8,76.5,65.4,53.2,54.9,48.9,40.9,87,59,31,30.06,29.93,17,2,17,0.00
2014-6-9,74.5,67.0,59.9,57.6,52.6,47.1,87,62,43,29.97,29.86,16,3,16,0.00
2014-6-10,75.2,66.6,57.8,63.0,56.8,50.5,88,71,53,29.89,29.79,15,2,15,0.02
2014-6-11,84.2,71.7,56.7,61.6,56.7,52.8,93,62,35,29.82,29.65,11,1,11,0.00
2014-6-12,73.2,64.8,56.7,60.1,50.8,43.7,82,61,40,29.96,29.65,17,4,18,0.00
2014-6-13,77.5,65.1,49.5,48.7,44.4,37.6,78,51,25,30.03,29.87,16,2,16,0.00
2014-6-14,75.5,65.8,57.1,63.5,53.8,43.3,96,66,48,29.92,29.60,31,11,31,0.91
2014-6-15,76.5,70.6,66.1,64.9,59.6,54.3,85,69,51,29.84,29.43,35,10,35,0.00
2014-6-16,80.8,69.2,59.8,70.7,62.2,55.3,99,80,52,29.89,29.55,34,8,34,1.83
2014-6-17,80.1,70.9,60.8,74.3,67.1,60.5,100,89,72,29.83,29.59,23,7,23,0.59
2014-6-18,81.2,73.6,64.7,75.3,70.0,62.0,99,89,67,29.81,29.67,24,7,25,0.37
2014-6-19,74.0,69.3,64.9,71.3,68.0,64.6,100,96,89,29.91,29.74,36,12,40,1.84
2014-6-20,85.2,75.5,65.7,68.9,64.2,54.0,100,72,35,29.92,29.79,10,3,10,0.01
2014-6-21,88.2,76.9,69.0,71.0,66.4,62.5,86,71,48,29.85,29.77,19,3,19,0.00
2014-6-22,73.3,69.1,64.9,67.3,65.4,63.7,98,88,78,29.83,29.73,16,2,16,0.13
2014-6-23,80.0,71.7,64.3,70.2,65.6,61.2,100,82,59,29.84,29.76,10,1,10,0.00
2014-6-24,83.2,73.4,63.7,65.4,62.0,58.5,90,69,47,29.89,29.84,11,1,11,0.00
2014-6-25,82.4,73.2,65.5,66.4,62.6,60.9,87,70,52,29.95,29.89,9,1,9,0.00
2014-6-26,81.4,72.9,64.1,69.5,66.0,61.8,94,80,61,29.96,29.80,27,7,27,0.00
2014-6-27,77.3,71.9,67.0,72.0,69.2,65.3,99,91,81,29.82,29.73,26,10,26,0.36
2014-6-28,82.6,72.2,66.1,74.8,69.8,64.6,99,93,69,29.75,29.62,35,11,35,0.45
2014-6-29,79.1,69.1,61.4,72.9,65.4,59.0,99,88,73,29.85,29.68,27,5,27,0.60
2014-6-30,72.8,67.6,64.3,68.7,64.6,61.2,99,90,73,29.75,29.43,34,5,34,0.42
2014-7-1,71.8,65.1,56.8,62.5,58.2,52.7,89,79,64,29.81,29.60,30,6,30,0.02
2014-7-2,71.6,61.0,54.8,57.0,52.9,50.2,94,76,48,30.05,29.81,11,2,20,0.00
2014-7-3,81.2,65.8,55.1,56.4,51.9,47.5,84,63,37,30.17,30.05,8,1,8,0.00
2014-7-4,77.0,67.9,55.0,59.8,55.3,50.0,85,65,47,30.24,30.09,18,5,18,0.00
2014-7-5,75.5,68.0,61.6,68.0,63.8,59.0,98,87,75,30.13,29.87,22,8,22,0.14
2014-7-6,88.3,74.9,67.1,78.8,69.5,63.5,100,86,49,29.89,29.63,18,4,18,0.00
2014-7-7,81.2,74.5,65.3,70.3,66.5,63.3,94,77,61,29.75,29.59,17,3,17,0.00
2014-7-8,77.9,69.8,62.6,65.0,59.4,56.0,94,71,49,29.86,29.62,16,2,16,0.00
2014-7-9,79.2,70.2,55.6,64.1,57.7,51.2,89,66,46,29.97,29.86,12,1,12,0.00
2014-7-10,81.8,72.1,61.3,64.0,60.7,56.8,93,69,45,30.03,29.95,20,5,20,0.00
2014-7-11,78.7,71.3,65.7,69.0,64.3,59.0,95,79,69,30.00,29.91,23,7,23,0.00
2014-7-12,76.9,70.3,66.9,72.7,68.7,66.3,98,95,86,29.99,29.86,7,1,13,0.35
2014-7-13,80.8,72.1,63.0,68.3,63.0,57.3,99,76,47,29.94,29.84,14,2,14,0.01
2014-7-14,67.9,63.2,57.8,57.8,52.3,48.1,85,68,53,29.98,29.85,19,2,19,0.00
2014-7-15,69.4,60.8,52.6,54.3,51.7,48.8,92,73,52,30.05,29.98,18,2,18,0.00
2014-7-16,75.8,65.1,52.1,58.5,53.8,48.9,92,69,45,30.03,29.96,8,0,8,0.00
2014-7-17,76.7,66.7,54.2,60.3,55.2,51.0,90,68,44,30.03,29.97,12,2,12,0.00
2014-7-18,77.3,69.6,58.6,61.5,59.3,55.8,92,71,52,30.03,29.94,17,5,17,0.00
2014-7-19,78.8,70.7,61.6,64.6,62.1,59.3,93,75,57,29.95,29.86,21,5,21,0.00
2014-7-20,82.4,74.6,68.3,68.4,65.7,63.4,86,74,58,29.89,29.78,25,7,25,0.00
2014-7-21,85.6,78.0,69.2,78.3,72.3,65.9,92,83,73,29.87,29.77,25,8,25,0.00
2014-7-22,85.2,79.0,69.7,76.8,70.6,61.4,98,76,61,30.05,29.76,18,3,18,0.00
2014-7-23,81.3,71.2,60.0,64.1,59.7,56.6,90,69,47,30.17,30.05,10,1,10,0.00
2014-7-24,78.5,67.9,58.4,64.0,60.4,55.3,96,78,55,30.10,29.78,23,3,23,0.04
2014-7-25,78.8,70.5,62.6,70.7,66.5,61.2,99,88,69,29.91,29.71,30,7,30,0.42
2014-7-26,85.3,75.0,69.4,74.9,71.1,66.0,100,88,65,29.83,29.69,7,1,11,0.00
2014-7-27,73.3,68.7,63.8,66.7,61.5,57.8,91,78,68,30.04,29.78,17,2,17,0.00
2014-7-28,64.1,63.9,63.8,61.5,61.4,61.2,92,92,91,30.05,30.03,6,1,8,0.00
2014-7-31,81.0,72.7,58.4,63.3,60.2,55.7,91,67,48,30.02,29.95,7,1,13,0.00
2014-8-1,83.4,72.0,61.3,66.3,62.4,59.1,96,74,49,30.03,29.98,5,1,7,0.00
2014-8-2,82.2,73.4,63.5,67.3,62.8,59.2,93,71,47,30.09,30.01,8,2,12,0.00
2014-8-3,84.0,74.5,66.8,69.3,66.0,61.6,90,76,54,30.06,29.96,13,2,13,0.02
2014-8-4,84.0,74.0,66.6,71.2,67.0,63.8,95,80,55,30.01,29.93,7,0,7,0.00
2014-8-5,78.5,68.5,61.3,67.6,64.7,60.4,98,88,67,30.04,29.95,9,0,9,0.00
2014-8-6,72.4,67.9,64.1,66.9,64.9,62.2,97,90,80,30.02,29.96,12,3,12,0.00
2014-8-7,74.8,68.8,60.9,65.5,61.3,58.5,98,78,62,29.99,29.93,18,5,23,0.00
2014-8-8,78.9,71.4,65.7,64.2,62.1,58.7,90,73,52,30.02,29.95,18,4,18,0.00
2014-8-9,80.1,71.4,64.4,66.4,62.9,59.1,88,75,56,30.03,29.97,15,4,15,0.00
2014-8-10,80.0,70.7,61.8,67.4,63.8,60.0,94,80,56,30.01,29.93,11,2,11,0.00
2014-8-11,73.9,69.2,62.8,67.2,61.6,56.2,96,77,65,29.98,29.90,20,2,20,0.00
2014-8-12,76.2,66.4,56.2,61.4,56.1,50.7,96,72,44,30.03,29.97,16,1,16,0.00
2014-8-13,82.3,70.3,56.2,63.4,59.4,53.3,91,70,49,30.06,29.98,12,1,12,0.00
2014-8-14,78.4,69.1,59.2,65.7,60.4,54.4,91,75,56,30.06,29.93,15,3,15,0.00
2014-8-15,73.5,66.9,61.3,67.4,63.7,59.9,98,90,78,29.96,29.84,15,3,15,0.00
2014-8-16,82.8,72.2,65.1,70.8,67.4,64.5,98,86,64,29.86,29.80,9,2,9,0.00
2014-8-17,84.5,75.9,67.1,71.7,69.4,65.9,98,82,59,29.90,29.78,15,2,15,0.00
2014-8-18,85.8,76.4,68.0,73.4,68.8,64.9,97,79,53,29.81,29.59,16,4,16,0.02
2014-8-19,82.8,73.1,65.0,67.7,65.8,63.6,96,79,56,29.74,29.62,12,2,12,0.00
2014-8-20,78.0,70.3,63.2,69.5,66.6,61.5,97,88,73,29.81,29.71,12,3,13,0.00
2014-8-21,86.8,75.7,68.6,75.3,71.8,67.7,100,89,61,29.81,29.69,22,6,22,0.34
2014-8-22,89.8,79.1,73.2,77.1,73.8,70.9,99,85,65,29.90,29.76,9,1,9,0.00
2014-8-23,79.9,73.4,69.2,74.0,71.0,68.8,100,93,76,29.95,29.79,21,4,21,1.96
2014-8-24,88.7,78.1,70.1,77.2,72.9,68.2,99,85,63,29.83,29.74,19,7,19,0.38
2014-8-25,83.2,74.1,67.1,72.7,67.4,62.4,99,81,51,30.00,29.78,21,1,21,0.43
2014-8-26,77.1,67.4,61.4,64.1,59.5,56.5,89,77,54,30.16,29.97,8,1,16,0.02
2014-8-27,74.5,65.8,57.1,63.9,59.8,55.7,96,81,65,30.17,30.03,11,2,11,0.00
2014-8-28,69.4,65.4,62.2,69.4,64.5,60.2,100,97,89,30.07,29.83,19,6,19,0.60
2014-8-29,80.5,72.0,66.0,72.5,68.9,66.0,100,91,74,29.84,29.67,17,5,17,0.50
2014-8-30,79.2,70.1,65.0,69.5,66.4,63.1,100,89,65,29.82,29.68,11,1,11,0.01
2014-8-31,85.8,70.1,59.9,73.4,65.5,59.2,99,87,63,29.82,29.59,24,6,24,0.96
2014-9-1,77.5,68.5,62.6,67.9,62.8,55.5,99,83,57,29.80,29.59,16,3,20,0.04
2014-9-2,76.1,68.7,59.5,62.8,59.6,56.6,97,74,55,29.89,29.79,23,4,23,0.14
2014-9-3,82.2,70.8,56.7,73.4,65.4,55.4,97,84,67,29.89,29.66,26,6,29,0.00
2014-9-4,87.0,78.0,69.1,76.4,72.5,67.9,99,84,65,29.83,29.62,21,6,21,0.00
2014-9-5,72.9,60.5,55.7,68.8,55.6,52.4,94,84,69,30.17,29.82,16,2,17,0.22
2014-9-6,75.5,62.6,50.2,57.5,52.9,47.6,93,73,44,30.22,30.13,8,1,10,0.01
2014-9-7,73.8,63.2,53.7,56.9,53.4,50.3,89,72,47,30.15,30.00,18,4,19,0.00
2014-9-8,70.0,60.9,53.6,62.8,56.0,51.0,95,84,59,30.01,29.79,29,5,29,0.00
2014-9-9,70.9,65.7,63.2,65.7,63.8,62.1,99,94,81,29.82,29.61,22,8,22,0.15
2014-9-10,65.3,60.2,52.3,64.9,58.7,48.8,99,95,87,29.89,29.51,19,3,22,0.53
2014-9-11,56.2,50.5,44.8,45.8,42.8,40.6,92,76,61,30.34,30.15,9,1,14,0.00
2014-9-12,53.2,45.9,40.9,46.3,42.5,38.7,96,88,73,30.43,30.31,10,0,11,0.38
2014-9-13,59.9,48.6,38.3,43.1,39.1,33.2,98,73,43,30.37,30.21,19,3,19,0.00
2014-9-14,68.5,56.9,45.2,55.4,48.7,41.6,88,75,55,30.21,30.06,17,4,18,0.00
2014-9-15,60.7,53.1,45.3,50.2,47.1,41.9,97,81,52,30.22,30.07,10,1,15,0.28
2014-9-16,67.2,54.6,43.1,48.7,44.1,39.4,90,70,44,30.22,30.00,14,2,15,0.00
2014-9-17,77.3,61.3,49.9,59.7,51.6,46.1,92,73,44,30.00,29.88,11,2,11,0.00
2014-9-18,72.8,61.0,49.4,58.1,52.9,48.2,96,77,49,30.05,29.96,19,4,20,0.00
2014-9-19,80.0,65.6,50.9,67.6,59.7,49.4,96,82,62,29.98,29.67,29,9,31,0.00
2014-9-20,79.7,68.3,57.7,67.7,61.7,55.6,98,82,46,29.86,29.68,24,5,24,0.67
2014-9-21,65.5,58.5,53.3,55.9,51.3,49.0,93,78,57,30.20,29.85,18,2,18,0.00
2014-9-22,74.0,59.2,46.4,55.4,50.4,45.3,97,75,42,30.27,30.15,11,1,11,0.00
2014-9-23,72.8,60.9,49.7,55.5,51.3,47.5,93,72,45,30.22,30.10,20,5,20,0.00
2014-9-24,67.0,60.4,55.4,57.1,54.6,52.6,95,82,65,30.16,30.09,23,6,25,0.28
2014-9-25,76.1,64.9,54.9,61.0,57.3,53.2,95,78,57,30.18,30.10,9,3,14,0.00
2014-9-26,80.8,65.1,55.6,61.8,57.8,53.0,91,79,51,30.12,30.04,19,4,19,0.00
2014-9-27,81.0,68.5,58.1,63.0,59.3,56.4,96,75,49,30.12,30.02,17,4,18,0.00
2014-9-28,80.8,68.3,56.4,64.7,57.7,54.3,95,71,43,30.10,29.99,12,1,16,0.00
2014-9-29,67.2,61.6,51.0,61.7,56.7,48.8,93,84,70,30.00,29.96,7,1,11,0.00
2014-9-30,64.3,54.4,47.9,55.1,50.8,46.3,96,88,70,30.00,29.80,29,7,32,0.03
2014-10-1,65.6,56.8,50.4,62.5,55.7,49.9,99,96,89,29.84,29.71,24,7,28,0.68
2014-10-2,63.9,57.9,50.7,63.9,57.5,49.6,100,99,95,29.79,29.64,17,1,18,0.13
2014-10-3,50.6,44.7,38.1,50.0,36.5,27.0,98,74,54,29.91,29.70,22,4,24,0.01
2014-10-4,51.7,42.5,35.7,36.8,31.9,28.5,80,67,49,29.86,29.73,18,3,19,0.00
2014-10-5,41.2,37.1,34.8,35.5,31.9,30.5,84,81,73,29.73,29.66,7,1,7,0.00
2014-10-8,67.2,59.1,50.2,45.7,40.6,35.3,83,53,33,30.07,29.97,22,2,22,0.03
2014-10-9,57.8,48.3,39.5,44.5,34.9,28.7,82,62,34,30.20,30.04,12,1,12,0.00
2014-10-10,57.1,46.3,34.8,39.5,35.5,31.9,93,67,46,30.26,30.17,10,1,10,0.00
2014-10-11,59.7,45.6,33.8,38.0,34.4,30.4,90,67,39,30.26,30.02,14,2,14,0.00
2014-10-12,56.2,45.1,32.7,49.5,41.3,31.0,98,87,61,30.02,29.76,21,6,21,0.00
2014-10-13,54.0,51.2,49.6,53.5,50.7,49.1,99,98,97,29.79,29.62,18,2,18,0.87
2014-10-14,62.1,53.4,47.8,50.9,45.7,40.7,99,77,46,29.90,29.61,28,5,28,0.13
2014-10-15,66.8,52.7,43.6,43.0,38.8,34.2,82,62,32,29.97,29.84,17,2,17,0.00
2014-10-16,72.2,56.7,42.2,50.3,42.4,35.5,88,61,40,29.84,29.59,20,4,20,0.00
2014-10-17,54.2,50.8,43.2,46.7,44.2,40.0,89,78,66,30.06,29.61,23,3,23,0.00
2014-10-18,57.2,46.7,38.6,43.9,40.4,34.9,94,80,54,30.21,30.05,13,1,13,0.00
2014-10-19,68.0,52.0,38.6,49.5,43.7,35.4,94,75,50,30.12,29.82,27,7,27,0.00
2014-10-20,66.5,55.4,45.1,47.5,43.9,41.4,87,67,44,30.02,29.85,15,1,15,0.00
2014-10-21,62.6,49.6,38.3,45.4,41.5,37.0,96,75,50,30.16,30.02,17,4,17,0.00
2014-10-22,61.7,49.1,38.0,46.2,41.7,36.7,96,77,56,30.21,30.06,25,10,25,0.00
2014-10-23,68.5,54.9,48.8,56.7,49.0,44.9,99,82,48,30.06,29.94,13,3,13,0.48
2014-10-24,69.0,55.7,43.7,61.6,52.7,42.4,100,90,70,29.97,29.81,14,4,14,0.00
2014-10-25,66.0,57.7,50.1,51.5,41.8,33.7,86,58,32,30.06,29.90,15,2,15,0.00
2014-10-26,63.6,55.3,42.4,42.4,35.8,31.4,69,49,32,29.96,29.55,28,12,28,0.00
2014-10-27,67.8,55.1,46.0,54.6,47.4,42.2,89,76,57,29.75,29.47,16,2,16,0.00
2014-10-28,48.6,44.4,38.8,42.7,37.0,33.7,90,75,65,30.03,29.75,24,7,24,0.00
2014-10-29,49.9,41.3,36.7,37.1,33.6,30.9,87,74,60,30.18,30.03,17,3,17,0.00
2014-10-30,54.7,43.3,34.9,42.2,36.7,28.1,94,79,58,30.28,30.02,27,3,27,0.00
2014-10-31,39.5,32.5,26.1,29.3,20.6,18.7,79,62,45,30.52,30.28,19,5,29,0.00
2014-11-1,44.0,32.4,21.7,26.4,22.2,17.6,86,67,43,30.51,30.23,24,7,24,0.00
2014-11-2,57.7,42.9,30.8,35.4,29.9,23.8,80,62,39,30.24,29.92,30,10,30,0.00
2014-11-3,58.2,48.3,38.5,50.9,42.7,32.3,94,81,71,29.92,29.76,23,7,23,0.04
2014-11-4,57.1,45.6,36.9,42.0,36.1,30.3,89,71,46,30.04,29.85,27,5,27,0.00
2014-11-5,51.1,43.8,36.5,42.7,36.9,31.1,91,77,61,30.05,29.83,23,4,23,0.00
2014-11-6,42.4,36.7,28.0,39.1,31.7,26.0,95,82,66,30.29,29.93,28,5,28,0.00
2014-11-7,52.7,40.5,27.8,44.2,32.6,25.9,95,75,47,30.24,29.73,28,8,28,0.00
2014-11-8,44.0,39.0,34.8,38.2,28.8,24.6,80,67,56,30.07,29.82,31,7,34,0.00
2014-11-9,47.2,39.6,35.2,36.2,32.9,29.0,92,77,59,29.89,29.72,13,3,13,0.00
2014-11-10,54.2,39.6,26.0,44.2,35.5,0.0,93,86,67,29.84,29.36,25,8,25,0.00
2014-11-11,26.2,23.2,19.0,24.3,19.2,13.6,93,84,77,30.33,29.83,25,6,26,0.00
2014-11-12,22.8,19.9,15.1,19.8,15.2,11.2,89,82,73,30.41,30.33,18,5,18,0.00
2014-11-13,22.5,19.4,14.0,17.7,14.8,10.1,89,82,74,30.47,30.42,15,4,19,0.00
2014-11-14,22.8,15.5,9.1,15.2,10.7,6.3,89,81,67,30.48,30.38,8,1,9,0.00
2014-11-15,23.6,19.8,11.7,20.7,17.0,8.8,93,89,78,30.39,30.15,11,4,11,0.00
2014-11-16,21.7,13.5,6.4,20.1,9.5,1.6,94,84,76,30.15,29.99,18,5,18,0.00
2014-11-17,12.1,9.2,5.1,8.5,5.0,0.9,87,83,78,30.15,30.02,23,7,23,0.00
2014-11-18,19.2,15.7,10.0,14.0,10.2,5.9,84,79,68,30.17,29.88,18,7,18,0.00
2014-11-19,25.3,21.1,16.1,20.4,15.0,11.3,85,77,67,30.09,29.81,21,7,21,0.00
2014-11-20,21.2,14.9,8.5,13.2,9.5,5.1,88,79,64,30.34,30.08,16,3,16,0.00
2014-11-21,33.5,24.1,3.8,29.8,18.9,0.6,89,80,72,30.34,30.02,25,11,25,0.00
2014-11-22,51.7,42.0,34.8,51.4,41.6,34.3,100,98,96,29.87,29.55,23,8,29,0.00
2014-11-23,51.9,45.3,30.6,51.8,44.5,28.9,100,97,88,29.55,29.30,23,7,23,0.01
2014-11-24,30.5,22.9,18.7,29.2,20.3,14.6,95,90,82,29.58,29.30,30,7,30,0.00
2014-11-25,22.8,21.3,20.3,19.1,18.0,17.3,88,87,82,30.09,30.06,15,8,15,0.00
2014-11-26,30.6,23.7,11.7,25.9,21.2,8.7,95,90,78,30.42,29.99,19,4,19,0.00
2014-11-27,11.7,2.7,-5.3,8.8,-1.8,-8.7,88,81,73,30.57,30.37,15,3,15,0.00
2014-11-28,27.4,22.9,13.4,24.6,20.2,9.5,94,89,84,30.07,29.74,21,9,21,0.00
2014-11-29,46.7,38.1,22.5,38.0,32.9,21.3,99,82,69,29.61,29.46,18,5,18,0.02
2014-11-30,14.6,10.5,6.5,8.1,4.5,-0.3,84,76,72,30.61,29.93,23,7,23,0.00
2014-12-1,13.6,7.0,2.1,1.8,-1.6,-6.0,80,68,50,30.83,30.55,18,4,18,0.00
2014-12-2,25.1,21.3,13.2,16.6,13.8,7.4,78,72,68,30.30,30.06,17,5,17,0.00
2014-12-3,27.5,22.2,18.0,16.2,14.1,12.0,81,71,57,30.38,30.22,13,3,13,0.00
2014-12-4,34.7,28.0,17.8,26.4,18.6,12.6,86,69,50,30.34,30.15,25,10,25,0.00
2014-12-5,33.7,31.6,29.4,33.2,30.9,27.9,98,98,94,30.35,30.14,13,3,13,0.00
2014-12-7,35.1,32.6,26.5,33.4,30.2,24.5,98,91,82,30.46,30.08,31,12,31,0.07
2014-12-8,35.9,31.3,23.8,35.7,29.3,20.0,99,92,82,30.29,30.02,20,6,20,0.01
2014-12-9,33.1,26.4,20.4,27.3,23.2,17.9,96,87,78,30.50,30.41,14,2,14,0.00
2014-12-10,30.3,28.2,24.7,28.0,26.1,23.7,96,92,88,30.42,30.30,13,5,13,0.00
2014-12-11,31.4,29.3,26.0,30.7,28.5,25.0,98,97,94,30.31,30.24,13,4,13,0.00
2014-12-12,38.9,34.6,32.4,38.1,33.9,31.5,98,97,96,30.28,30.15,16,6,16,0.00
2014-12-13,47.3,44.6,41.1,47.3,44.6,41.1,100,100,100,30.12,29.96,14,5,14,0.01
2014-12-14,51.4,49.1,45.0,51.4,49.1,45.0,100,100,100,29.91,29.80,17,6,17,0.01
2014-12-15,47.4,45.3,35.4,47.4,45.3,35.4,100,100,100,29.80,29.59,25,6,25,0.47
2014-12-16,27.9,19.1,15.8,27.7,16.8,12.5,99,91,86,30.32,29.87,21,6,32,0.03
2014-12-17,22.7,17.1,10.7,18.4,14.1,8.6,93,88,82,30.40,30.32,12,2,12,0.00
2014-12-18,23.8,21.6,17.2,20.9,18.6,15.5,93,88,83,30.35,30.28,7,1,7,0.00
2014-12-19,30.9,28.3,25.0,29.2,26.8,23.0,97,94,92,30.30,30.20,14,6,14,0.00
2014-12-20,32.0,30.5,29.6,32.0,29.8,28.2,100,97,91,30.19,30.10,13,5,13,0.00
2014-12-21,38.2,36.9,34.9,38.2,36.8,34.9,100,100,97,29.94,29.73,23,11,24,0.02
2014-12-22,38.0,35.5,33.1,38.0,35.5,33.1,100,100,100,29.73,29.49,22,9,22,0.23
2014-12-23,34.3,33.5,33.0,34.3,33.4,32.6,100,100,94,29.82,29.48,16,3,16,0.28
2014-12-24,34.1,32.8,28.1,33.4,31.8,27.4,99,96,91,29.80,29.65,18,5,18,0.06
2014-12-26,31.3,29.4,27.5,31.3,29.1,27.0,100,99,98,29.96,29.87,14,4,14,0.01
2014-12-28,29.2,18.4,10.2,21.6,15.0,8.3,92,87,71,30.36,30.18,8,1,8,0.00
2014-12-29,18.2,10.5,-0.9,15.9,5.8,-4.6,91,81,70,30.76,30.36,18,4,18,0.00
2014-12-30,5.6,-0.7,-5.2,-2.7,-5.8,-9.2,85,79,64,30.90,30.75,15,4,15,0.00
2014-12-31,16.4,7.6,-5.6,9.2,2.3,-9.1,85,79,71,30.60,30.20,32,12,33,0.00
2015-1-1,30.9,26.3,14.7,24.9,21.1,11.3,86,81,73,30.20,30.01,22,5,22,0.00
2015-1-2,28.2,21.2,13.8,23.6,17.6,10.6,91,86,78,30.29,30.03,13,4,13,0.00